STARLINK-3994 (52633 NORAD) Tracking and Keplerian Element Data

This shows tracking and keplerian element data for the satellite.

Feedback or suggestion? Click here.




ElementValue
Catalog52633
NameSTARLINK-3994
Epoch Orbit130
Epoch Day167.08334491
Epoch Year2022
RAAN279.9982
Inclination53.2141
Eccentricity0.0001597
Argument of Perigee32.7038
Mean Anonmoly5.7222
Mean Motion15.73219237
Decay Rate0.00028591
L11 52633U 22052AM 22167.08334491 .00028591 00000+0 20726-3 0 9994
L22 52633 53.2141 279.9982 0001597 32.7038 5.7222 15.73219237 1300

Live tracking and technical data element details for STARLINK-3994 (NORAD 52633). STARLINK-3994 can be tracked NOW for your location showing map with azimuth and elevation plus other details from your city location.

Track the satellite on the map from your city or location and see movement details for azimuth, elevation, latitude, longitude, range, height, and movement on the map or in text.







IsCatalogInMostPopularTable: catalog: 52633, numindb: 1
Update: records affected: 1



GetName: 52633 STARLINK-3994

Hit Count: updated at: Mon, 27 Jun 2022 05:08:59 GMT